sat.trackr.live / text

‹ back to catalog

STARLINK-31751

NORAD 59574 · 2024-076L

PAYLOAD ACTIVE UNKNOWN

§ Identity

Operator
Country
US
Launch date
2024-04-23
Launch site
AFETR
Launch vehicle
Mass (kg)
RCS (m²)

Purposes: comms

External: N2YO · Heavens-Above · Gunter

§ Orbital elements

Epoch: 2026-09-21T11:41:25.220544Z

Period
94.27 min
Inclination
43.0051°
Eccentricity
0.0001461
Mean motion
15.27584571 rev/d
Perigee alt
482.0 km
Apogee alt
484.0 km
Semi-major
6,861.2 km
B*
4.4860e-6
RAAN
343.5686°
Arg perigee
256.3190°
Mean anomaly
103.7499°
Rev number
13,644

§ Raw data

STARLINK-317511 59574U 24076L   26264.48709746 -.00000139  00000+0  44860-5 0  99942 59574  43.0051 343.5686 0001461 256.3190 103.7499 15.27584571136444

JSON: /api/v1/satellites/59574 · /tle

For live sub-satellite position, see the globe view (requires WebGL).

§ Visibility from observer

Set your observer location to see the next 7 days of passes ≥ 10°. The values pass through the URL so the page stays shareable.

No JS? Fill the form by hand. The geolocation button needs JavaScript.